STARLINK-1027, 44732

Orbit data source: Space-Track

STARLINK-1027, 44732 is a payload satellite owned by SpaceX/Seattle (US) in LEO that was launched on Mon, 11 Nov 2019 UTC via an FALCON 9 launch vehicle from the Air Force Eastern Test Range (AFETR). Payloads include a variety of satellites, spacecraft, and rockets equipped with specific instruments for various scientific and technological missions. These include communications satellites like Starlink; space stations such as the ISS; scientific satellites like the Hubble; Earth observation satellites from companies like Planet Labs, Umbra, and HawkEye 360; GPS; miniature CubeSats for education and research; and military/defense satellites.

Loading next visibility...
STARLINK-1027 details
Identifier
44732, 2019-074V
Orbit
LEO
Last TLE update9 hours ago
Origin
Flag of USSpaceX/Seattle (US)
ManufacturerSpaceX/Seattle
MissionOperational Commercial Communications
Bus & MotorSTARLINK, Unknown motor
Mass260 kg wet, ~248 kg dry
Launch date (UTC)
2019-11-11 (5 years ago)
Launch vehicle
FALCON 9
Launch site
Air Force Eastern Test Range (AFETR)
Object type
Payload
Rocket body
Debris
Shape & HBRBox + 1 Pan, 8.86 m
Radar Cross Section13.562 m², Large (>1 m²)

Expand to show TLE details & history

TLE from 9 hours ago
0 STARLINK-1027
1 44732U 19074V   24361.23404603  .00017182  00000-0  10007-2 0  9998
2 44732  53.0540  14.7296 0001589  96.5250 263.5923 15.12118217282380
Epoch: 2024-12-26T05:37Z
Definitive object data (Epoch: 2024-12-26T05:37:01.576Z)
Latitude
Longitude-164.74334°
Altitude530.745 km
Speed7.599 km/s
True Right ascension00h 58m 55s
True Declination0° 00' 00"
Sunlit
Object was in daylight at TLE epoch
Visualization TLE readout
Latitude-28.87192°
Longitude169.13425°
Altitude539.166 km
Speed7.592 km/s
Apparent Right ascension00h 36m 54s
Apparent Declination-36° 14' 56"
Sunlit
Object is in daylight
Visualization observer readout
Local Sidereal Time14:20:14
Azimuth88.005° E
Elevation-69.413°
Doppler factor1
Orbital elements
Apogee altitude531.11 km
Perigee altitude528.915 km
Semi-major axis6,908.15 km
Eccentricity0.0001589
Inclination53.054°
RAAN14.7296°
Arg. of periapsis96.525°
True anomaly263.57421°
Mean anomaly263.5923°
Eccentric anomaly263.58325°
Mean motion3.78008 °/min
BSTAR0.0010007
Orbital period95.24 mins
Loading maneuver chart data...

STARLINK-1027 Visibility forecast

Observer location: undefined°, undefined

Span
Click to sort rows by Start time (UTC) header in descending order
Start Az.
Max El. time (UTC)
Max El. Az.
Max El.
End time (UTC)
End Az.
4 mins2024-12-27 02:23:18.528Z157.179° SSE2024-12-27 02:25:18.528Z126.153° SE13.897°2024-12-27 02:27:18.528Z95.021° ESE
6 mins2024-12-27 04:01:18.528Z238.174° WSW2024-12-27 04:04:18.528Z4.697° NNE42.968°2024-12-27 04:07:18.528Z46.211° ENE
4 mins2024-12-27 05:42:18.528Z314.477° NW2024-12-27 05:43:18.528Z333.046° NNW17.552°2024-12-27 05:46:18.528Z23.964° NE
5 mins2024-12-27 09:02:18.528Z342.262° N2024-12-27 09:04:18.528Z20.13° NNE20.574°2024-12-27 09:07:18.528Z72.985° E
6 mins2024-12-27 10:41:18.528Z305.706° NW2024-12-27 10:44:18.528Z167.07° S43.166°2024-12-27 10:47:18.528Z136.452° SSE
|